Weather History for St. James, MN

Change the Weather History Date:

Friday, September 27, 2013

  Actual Average Record
Temperature  
Mean Temperature 78 °F -  
Max Temperature 89 °F 71 °F 89 °F (2013)
Min Temperature 68 °F 44 °F 28 °F (2012)
Cooling Degree Days 14    
Growing Degree Days 28 (Base 50)    
Moisture  
Dew Point 59 °F    
Average Humidity 59    
Maximum Humidity 83    
Minimum Humidity 29    
Precipitation  
Precipitation 0.02 in - - ()
Sea Level Pressure  
Sea Level Pressure 29.83 in    
Wind  
Wind Speed 13 mph (SE)    
Max Wind Speed 26 mph    
Max Gust Speed 36 mph    
Visibility 10 miles    
Events Rain    
Averages and records for this station are not official NWS values.
T = Trace of Precipitation, MM = Missing Value Source: NWS Daily Summary

Daily Weather History Graph

Daily Weather History Graph

Search for Another Location

Airport:

Trip Planner

Search our weather history database for the weather conditions in past years. The results will help you decide how hot, cold, wet, or windy it might be!

Date:

Astronomy

Sep. 27, 2013 Rise Set
Actual Time 7:11 AM CDT 7:05 PM CDT
Civil Twilight 6:42 AM CDT 7:34 PM CDT
Nautical Twilight 6:09 AM CDT 8:08 PM CDT
Astronomical Twilight 5:34 AM CDT 8:42 PM CDT
Moon No Moon Rise 2:55 PM CDT (9/27)
Length of Visible Light 12h 51m
Length of Day
11h 54m
Last Quarter, 45% of the Moon is Illuminated
Sep 27
Last Quarter
Oct 4
New
Oct 11
First Quarter
Oct 18
Full
Oct 26
Last Quarter

Hourly Weather History & Observations

Time (CDT) Temp. Heat Index Dew Point Humidity Pressure Visibility Wind Dir Wind Speed Gust Speed Precip Events Conditions
12:14 AM 71.6 °F - 59.0 °F 64% 29.88 in 10.0 mi SE 10.4 mph - N/A   Clear
12:35 AM 69.8 °F - 59.0 °F 68% 29.88 in 10.0 mi SE 10.4 mph - N/A   Clear
12:55 AM 69.8 °F - 59.0 °F 68% 29.87 in 10.0 mi SE 11.5 mph - N/A   Clear
1:15 AM 69.8 °F - 59.0 °F 68% 29.87 in 10.0 mi SE 11.5 mph - N/A   Clear
1:35 AM 68.0 °F - 59.0 °F 73% 29.88 in 10.0 mi SE 9.2 mph - N/A   Clear
1:55 AM 69.8 °F - 60.8 °F 73% 29.88 in 10.0 mi SE 9.2 mph - N/A   Clear
2:14 AM 69.8 °F - 60.8 °F 73% 29.88 in 10.0 mi SE 11.5 mph - N/A   Clear
2:35 AM 69.8 °F - 60.8 °F 73% 29.87 in 10.0 mi SE 11.5 mph - N/A   Clear
2:55 AM 69.8 °F - 60.8 °F 73% 29.87 in 10.0 mi SE 10.4 mph 18.4 mph N/A   Clear
3:14 AM 69.8 °F - 60.8 °F 73% 29.87 in 10.0 mi SE 10.4 mph - N/A   Clear
3:35 AM 69.8 °F - 60.8 °F 73% 29.86 in 10.0 mi SE 12.7 mph - N/A   Clear
3:55 AM 69.8 °F - 60.8 °F 73% 29.86 in 10.0 mi SE 13.8 mph 19.6 mph N/A   Clear
4:14 AM 69.8 °F - 60.8 °F 73% 29.85 in 10.0 mi SE 13.8 mph 18.4 mph N/A   Clear
4:35 AM 69.8 °F - 60.8 °F 73% 29.85 in 10.0 mi SE 13.8 mph 19.6 mph N/A   Clear
4:55 AM 69.8 °F - 60.8 °F 73% 29.85 in 10.0 mi SE 12.7 mph 18.4 mph N/A   Clear
5:15 AM 69.8 °F - 60.8 °F 73% 29.86 in 10.0 mi SSE 13.8 mph 20.7 mph N/A   Clear
5:34 AM 69.8 °F - 60.8 °F 73% 29.86 in 10.0 mi SE 12.7 mph 18.4 mph N/A   Clear
5:55 AM 69.8 °F - 60.8 °F 73% 29.85 in 10.0 mi SE 11.5 mph 17.3 mph N/A   Clear
6:15 AM 69.8 °F - 60.8 °F 73% 29.86 in 10.0 mi SSE 15.0 mph 19.6 mph N/A   Clear
6:34 AM 69.8 °F - 60.8 °F 73% 29.86 in 10.0 mi SSE 12.7 mph 18.4 mph N/A   Clear
6:55 AM 69.8 °F - 60.8 °F 73% 29.86 in 10.0 mi SSE 12.7 mph 18.4 mph N/A   Clear
7:15 AM 71.6 °F - 60.8 °F 69% 29.86 in 10.0 mi SE 15.0 mph 21.9 mph N/A   Clear
7:35 AM 69.8 °F - 60.8 °F 73% 29.87 in 10.0 mi SSE 16.1 mph 20.7 mph N/A   Clear
7:55 AM 69.8 °F - 60.8 °F 73% 29.87 in 10.0 mi SSE 11.5 mph 18.4 mph N/A Rain Light Rain
8:14 AM 68.0 °F - 62.6 °F 83% 29.86 in 10.0 mi SSE 11.5 mph 18.4 mph 0.02 in Rain Light Rain
8:35 AM 68.0 °F - 62.6 °F 83% 29.87 in 10.0 mi SE 9.2 mph - 0.02 in Rain Light Rain
8:55 AM 68.0 °F - 62.6 °F 83% 29.85 in 10.0 mi SE 13.8 mph 20.7 mph 0.02 in   Light Drizzle
9:14 AM 69.8 °F - 62.6 °F 78% 29.88 in 10.0 mi SSE 10.4 mph - N/A Rain Light Rain
9:35 AM 69.8 °F - 62.6 °F 78% 29.86 in 10.0 mi SE 6.9 mph - N/A Rain Light Rain
9:55 AM 69.8 °F - 62.6 °F 78% 29.89 in 10.0 mi SSE 6.9 mph - N/A   Scattered Clouds
10:15 AM 69.8 °F - 62.6 °F 78% 29.87 in 10.0 mi SE 8.1 mph - N/A   Scattered Clouds
10:34 AM 71.6 °F - 62.6 °F 73% 29.87 in 10.0 mi SE 10.4 mph 18.4 mph N/A Rain Light Rain
10:55 AM 71.6 °F - 62.6 °F 73% 29.86 in 10.0 mi SSE 10.4 mph - N/A   Scattered Clouds
11:15 AM 71.6 °F - 60.8 °F 69% 29.84 in 10.0 mi SE 12.7 mph 20.7 mph N/A   Scattered Clouds
11:35 AM 71.6 °F - 62.6 °F 73% 29.83 in 10.0 mi SE 15.0 mph 21.9 mph N/A Rain Light Rain
11:55 AM 73.4 °F - 60.8 °F 65% 29.82 in 10.0 mi SE 13.8 mph 18.4 mph N/A   Clear
12:15 PM 75.2 °F - 62.6 °F 65% 29.85 in 10.0 mi SSE 15.0 mph 23.0 mph N/A   Clear
12:35 PM 78.8 °F - 60.8 °F 54% 29.83 in 10.0 mi SSE 17.3 mph 31.1 mph N/A   Clear
12:54 PM 80.6 °F 81.5 °F 60.8 °F 51% 29.82 in 10.0 mi SSE 21.9 mph 31.1 mph N/A   Clear
1:13 PM 82.4 °F 82.5 °F 59.0 °F 45% 29.80 in 10.0 mi SE 24.2 mph 29.9 mph N/A   Clear
1:21 PM 82.4 °F 82.5 °F 59.0 °F 45% 29.80 in 10.0 mi SE 20.7 mph 29.9 mph N/A   Clear
1:41 PM 84.2 °F 83.5 °F 57.2 °F 40% 29.79 in 10.0 mi SE 23.0 mph 32.2 mph N/A   Clear
2:01 PM 86.0 °F 84.9 °F 57.2 °F 37% 29.78 in 10.0 mi SSE 25.3 mph 33.4 mph N/A   Clear
2:21 PM 87.8 °F 86.1 °F 55.4 °F 33% 29.78 in 10.0 mi SSE 21.9 mph 32.2 mph N/A   Clear
3:01 PM 89.6 °F 87.3 °F 53.6 °F 29% 29.78 in 10.0 mi SSE 26.5 mph 34.5 mph N/A   Clear
3:10 PM 87.8 °F 85.7 °F 53.6 °F 31% 29.78 in 10.0 mi South 20.7 mph 35.7 mph N/A   Clear
3:25 PM 86.0 °F 84.2 °F 53.6 °F 33% 29.78 in 10.0 mi SSE 21.9 mph 34.5 mph N/A   Clear
3:41 PM 84.2 °F 82.8 °F 53.6 °F 35% 29.78 in 10.0 mi SSE 25.3 mph 34.5 mph N/A   Clear
4:01 PM 84.2 °F 83.0 °F 55.4 °F 37% 29.79 in 10.0 mi SSE 15.0 mph 26.5 mph N/A   Clear
4:21 PM 84.2 °F 83.0 °F 55.4 °F 37% 29.80 in 10.0 mi SSE 18.4 mph 29.9 mph N/A   Clear
5:01 PM 84.2 °F 83.0 °F 55.4 °F 37% 29.79 in 10.0 mi SSE 25.3 mph 29.9 mph N/A   Clear
5:21 PM 84.2 °F 83.5 °F 57.2 °F 40% 29.80 in 10.0 mi SSE 15.0 mph 21.9 mph N/A   Clear
5:29 PM 84.2 °F 83.0 °F 55.4 °F 37% 29.80 in 10.0 mi SSE 20.7 mph 26.5 mph N/A   Clear
5:35 PM 84.2 °F 83.0 °F 55.4 °F 37% 29.80 in 10.0 mi SSE 17.3 mph 26.5 mph N/A   Clear
5:55 PM 84.2 °F 83.0 °F 55.4 °F 37% 29.80 in 10.0 mi SSE 16.1 mph 26.5 mph N/A   Clear
6:15 PM 84.2 °F 83.5 °F 57.2 °F 40% 29.80 in 10.0 mi SSE 16.1 mph 26.5 mph N/A   Clear
6:34 PM 82.4 °F 82.0 °F 57.2 °F 42% 29.81 in 10.0 mi SSE 9.2 mph - N/A   Clear
6:55 PM 82.4 °F 82.0 °F 57.2 °F 42% 29.81 in 10.0 mi SSE 11.5 mph 18.4 mph N/A   Clear
7:15 PM 80.6 °F 80.8 °F 57.2 °F 45% 29.80 in 10.0 mi SE 13.8 mph 19.6 mph N/A   Clear
7:35 PM 80.6 °F 81.1 °F 59.0 °F 48% 29.80 in 10.0 mi SE 13.8 mph 17.3 mph N/A   Clear
7:55 PM 80.6 °F 80.8 °F 57.2 °F 45% 29.80 in 10.0 mi SE 11.5 mph 16.1 mph N/A   Clear
8:15 PM 78.8 °F - 57.2 °F 47% 29.80 in 10.0 mi SE 9.2 mph - N/A   Clear
8:35 PM 78.8 °F - 57.2 °F 47% 29.80 in 10.0 mi SE 11.5 mph - N/A   Clear
8:55 PM 77.0 °F - 57.2 °F 50% 29.82 in 10.0 mi SE 12.7 mph - N/A   Clear
9:14 PM 77.0 °F - 57.2 °F 50% 29.82 in 10.0 mi SE 15.0 mph 19.6 mph N/A   Clear
9:35 PM 77.0 °F - 57.2 °F 50% 29.82 in 10.0 mi SSE 13.8 mph 20.7 mph N/A   Clear
9:55 PM 75.2 °F - 57.2 °F 53% 29.82 in 10.0 mi SE 15.0 mph 20.7 mph N/A   Clear
10:14 PM 75.2 °F - 57.2 °F 53% 29.82 in 10.0 mi SE 11.5 mph 16.1 mph N/A   Clear
10:35 PM 75.2 °F - 57.2 °F 53% 29.81 in 10.0 mi SE 11.5 mph - N/A   Clear
10:55 PM 73.4 °F - 59.0 °F 61% 29.81 in 10.0 mi SE 12.7 mph 20.7 mph N/A   Clear
11:15 PM 73.4 °F - 59.0 °F 61% 29.80 in 10.0 mi SE 15.0 mph 20.7 mph N/A   Clear
11:35 PM 73.4 °F - 59.0 °F 61% 29.79 in 10.0 mi SE 12.7 mph 20.7 mph N/A   Clear
11:55 PM 73.4 °F - 60.8 °F 65% 29.78 in 10.0 mi SE 15.0 mph 21.9 mph N/A   Clear